Friday Harbor, WA
on Thursday, November 29, 2012

Thursday
Previous Day Next Day
Daily Summary
 ActualAverageRecord
Temperature
Mean Temperature °F °F  
Max Temperature 54°F 45°F 55°F (1999)
Min Temperature 48°F 36°F 33°F (2005)
Degree Days
Heating Degree Days 14    
Growing Degree Days1 (Base °F )  
Moisture
Dew Point 44°F   
Average Humidity 78    
Maximum Humidity 87    
Minimum Humidity 66    
Precipitation
Precipitation 0.00 in in in ()
Wind
Wind Speed 14 mph   
Max Wind Speed 22 mph   
Max Gust Speed 38 mph   
Visibility 10 miles   
Events     
Averages and records for this station are not official NWS values.
Key: T is trace of precipitation, MM is missing value
Source: NWS Daily Summary
Seasonal Weather Averages
Time(PST)TemperatureDew PointHumidity Pressure Visibility Wind DirectionWind SpeedGust SpeedPrecipitationEvents Conditions
12:53 AM 50.0°F 44.1°F 80% 29.66 in 10.0 miles SE 9.2 mph - N/A   Scattered Clouds
1:53 AM 48.9°F 44.1°F 83% 29.64 in 10.0 miles ESE 5.8 mph - N/A   Clear
2:53 AM 50.0°F 44.1°F 80% 29.62 in 10.0 miles SSE 12.7 mph 21.9 mph N/A   Scattered Clouds
3:53 AM 52.0°F 44.1°F 74% 29.59 in 10.0 miles ESE 16.1 mph 23.0 mph N/A   Mostly Cloudy
4:53 AM 52.0°F 43.0°F 71% 29.54 in 10.0 miles SE 18.4 mph 25.3 mph N/A   Partly Cloudy
5:53 AM 54.0°F 43.0°F 66% 29.51 in 10.0 miles ESE 17.3 mph 23.0 mph N/A   Mostly Cloudy
6:53 AM 50.0°F 44.1°F 80% 29.49 in 10.0 miles SE 17.3 mph 23.0 mph N/A   Mostly Cloudy
7:53 AM 50.0°F 43.0°F 77% 29.49 in 10.0 miles SSE 17.3 mph 23.0 mph N/A   Overcast
8:53 AM 50.0°F 43.0°F 77% 29.52 in 10.0 miles SE 17.3 mph 25.3 mph N/A   Overcast
9:53 AM 50.0°F 44.1°F 80% 29.51 in 10.0 miles SE 16.1 mph 24.2 mph N/A   Clear
10:53 AM 52.0°F 44.1°F 74% 29.50 in 10.0 miles SE 21.9 mph 38.0 mph N/A   Clear
11:53 AM 52.0°F 45.0°F 77% 29.54 in 10.0 miles SSE 19.6 mph 35.7 mph N/A   Scattered Clouds
12:23 PM 53.6°F 46.4°F 77% 29.54 in 10.0 miles SSE 20.7 mph 29.9 mph N/A   Mostly Cloudy
12:34 PM 53.6°F 46.4°F 77% 29.54 in 10.0 miles SE 19.6 mph 31.1 mph N/A   Scattered Clouds
12:53 PM 52.0°F 46.0°F 80% 29.55 in 10.0 miles SE 16.1 mph 29.9 mph N/A   Scattered Clouds
1:03 PM 51.8°F 44.6°F 76% 29.55 in 10.0 miles SE 17.3 mph 27.6 mph N/A   Mostly Cloudy
1:53 PM 51.1°F 46.0°F 83% 29.54 in 10.0 miles SE 17.3 mph 25.3 mph N/A   Overcast
2:53 PM 50.0°F 46.0°F 86% 29.54 in 10.0 miles ESE 11.5 mph - N/A   Overcast
3:45 PM 50.0°F 46.4°F 87% 29.52 in 10.0 miles ESE 11.5 mph - N/A   Overcast
3:53 PM 50.0°F 46.0°F 86% 29.52 in 10.0 miles ESE 10.4 mph - N/A   Overcast
4:53 PM 51.1°F 46.0°F 83% 29.51 in 10.0 miles SE 15.0 mph 20.7 mph N/A   Overcast
5:53 PM 51.1°F 44.1°F 77% 29.49 in 10.0 miles ESE 17.3 mph - N/A   Scattered Clouds
6:53 PM 51.1°F 44.1°F 77% 29.48 in 10.0 miles ESE 16.1 mph 23.0 mph N/A   Partly Cloudy
7:53 PM 52.0°F 43.0°F 71% 29.46 in 10.0 miles ESE 16.1 mph 25.3 mph N/A   Mostly Cloudy
8:53 PM 51.1°F 43.0°F 74% 29.44 in 10.0 miles ESE 16.1 mph 28.8 mph N/A   Clear
9:53 PM 50.0°F 43.0°F 77% 29.44 in 10.0 miles SE 17.3 mph 28.8 mph N/A   Clear
10:53 PM 52.0°F 43.0°F 71% 29.41 in 10.0 miles ESE 16.1 mph 26.5 mph N/A   Clear
11:53 PM 51.1°F 42.1°F 71% 29.39 in 10.0 miles ESE 17.3 mph 26.5 mph N/A   Clear
Moon Phase
Nov. 29 Dec. 06 Dec. 13 Dec. 20 Dec. 28
Sunrise:07:41 AM (PST) Moon Rise:05:27 PM (PST)11/29
Sunset:04:19 PM (PST) Moon Set:08:32 AM (PST)11/29

Copyright © 2014 The Weather Underground, Inc.